星链-30335 (STARLINK-30335 )

导读

STARLINK-30335是美国SpaceX公司星链(Starlink)项目的一颗低轨互联网卫星,于2023年8月27日发射升空。作为星链星座的组成部分,它运行在近地轨道,旨在为全球偏远地区提供低延迟高速宽带互联网服务,单颗星链卫星设计寿命超5年,该卫星目前处于在轨服役状态,助力星链完成全球覆盖的组网目标。

基本信息
目录编号:
57710
目录名称:
STARLINK-30335
国际标识:
2023-129N
轨道中心:
EARTH
卫星名称:
星链-30335
卫星全名:
星链-30335 (STARLINK-30335 )
卫星状态:
在轨 (已飞行1104 天)
发射日期:
2023-08-27 UTC
国别 :
美国 (US)
星等 :
--
轨道信息
数据来源 国际轨道数据 AOE轨道数据
星历时间 2026-09-04T12:34:50+0800
6小时前
查看轨道信息
2026-09-03T23:00:00+0800
20小时前
查看轨道信息
半长轴 6861.196km 6861.19km
偏心率 0.0001186 0.0001127
轨道倾角 43.001° 42.999°
近地点辐角 267.160° 258.851°
升交点赤经 189.683° 192.882°
平近点角 92.912° 225.751°
近地点 482.245km 482.279km
远地点 483.873km 483.827km
周期 94.267分钟 94.267分钟
每日圈数 15.275767 15.27579
详细信息
固有亮度:
5
最大亮度:
0.3
卫星平台:
Starlink v2.0 mini
覆盖范围:
全球
运营商:
太空探索技术公司
运营商所在国:
美国
制造商(研发单位):
太空探索技术公司
制造商所在国:
美国
使用方式:
暂无
卫星简介
星链(Starlink)计划是由太空探索技术公司(SpaceX)提出的一个巨型低轨卫星互联网星座项目,计划在2019年至2024年间在太空搭建由约1.2万颗卫星组成的“星链”网络,其中1584颗将部署在地球上空550千米处的近地轨道,并从2020年开始工作。该卫星仍在工作。
2D轨道图
3D轨道图
轨道高度分析图
轨道倾角分析图
轨道综合分析图
查看轨道综合分析图
交会数据列表
事件ID 空间交会对象 最接近时刻(TCA) 交会距离 交会风险概率(CRP) 交会风险指数(CRI) 操作
CDM_260904-154705-771006-696321
2026-09-04T
15:47:27+0000
0.549 km
远距离
1.091463E-4 高风险 0.76
CDM_260906-114605-771006-376521
2026-09-06T
11:46:28+0000
0.733 km
远距离
4.106011E-5 中风险 0.67
CDM_260905-050705-771006-696321
2026-09-05T
05:07:46+0000
1.066 km
极远距离
1.362714E-5 中风险 0.58
CDM_260905-145205-771005-829121
2026-09-05T
14:52:51+0000
1.284 km
极远距离
1.078776E-5 中风险 0.56
CDM_260904-172105-771006-696321
2026-09-04T
17:21:37+0000
1.513 km
极远距离
4.172902E-6 低风险 0.47
CDM_260906-132005-771006-376521
2026-09-06T
13:20:37+0000
1.786 km
极远距离
2.218775E-6 低风险 0.42
CDM_260905-064105-771006-696321
2026-09-05T
06:41:55+0000
1.927 km
极远距离
2.074446E-6 低风险 0.41
CDM_260902-203005-771006-630522
OBJECT N (66305)
2026-09-02T
20:30:50+0000
2.201 km
极远距离
1.804966E-6 低风险 0.4
CDM_260904-141305-771006-696321
2026-09-04T
14:13:18+0000
2.394 km
极远距离
1.284882E-6 低风险 0.37